Regional Weather Roundup
Issued by NWS

Home | Current Version | Previous Version | Text Only | Print | Product List | Glossary Off
Versions: 1 2 3 4 5 6 7 8 9 10 11 12 13 14 15 16 17 18 19 20 21 22 23 24 25 26 27 28 29 30 31 32 33 34 35 36 37 38 39 40 41 42 43 44 45 46 47 48 49 50

000
ASUS43 KMPX 290510
RWRMN
WEATHER ROUNDUP FOR MINNESOTA
NATIONAL WEATHER SERVICE TWIN CITIES/CHANHASSEN MN
1200 AM CDT THU JUN 29 2017


NOTE: "FAIR" INDICATES FEW OR NO CLOUDS BELOW 12,000 FEET WITH NO
SIGNIFICANT WEATHER AND/OR OBSTRUCTIONS TO VISIBILITY. N/A MEANS
CURRENT SKY AND/OR WEATHER CONDITIONS ARE NOT AVAILABLE.

MNZ060>063-068>070-290600-
   Twin Cities Metro

CITY           SKY/WX    TMP DP  RH WIND       PRES   REMARKS
TWIN CITIES    CLOUDY    70  59  68 W14       29.62S
ST PAUL        CLOUDY    69  61  75 W10       29.61S
CRYSTAL        CLOUDY    69  57  65 W10       29.60S
BLAINE         CLOUDY    70  61  73 W12G17    29.61S
LAKEVILLE      CLOUDY    66  59  77 W14       29.63R
EDEN PRAIRIE   CLOUDY    70  59  68 W8        29.62S
SOUTH ST PAUL  CLOUDY    69  59  69 W7        29.61R
LAKE ELMO      CLOUDY    68  61  77 W12       29.62S
$$
MNZ001>005-007-008-013>017-022>024-027-028-290600-
   Northwest Minnesota

CITY           SKY/WX    TMP DP  RH WIND       PRES   REMARKS
BEMIDJI        DRIZZLE   60  59  97 NW9       29.66R
HALLOCK        FOG       57  55  94 CALM      29.71R VSB 1/4
ROSEAU         CLOUDY    59  54  82 CALM      29.70R
WARROAD        CLOUDY    59  55  88 NW6       29.70R
THIEF RVR FALL CLOUDY    58  57  97 N5        29.70R
CROOKSTON      PTCLDY    59  57  94 N3        29.71R
FOSSTON        CLOUDY    57  57 100 N6        29.71R
DETROIT LAKES  CLOUDY    61  59  94 N6        29.70S
MOORHEAD       MOCLDY    63  61  94 CALM      29.70S
PARK RAPIDS    CLOUDY    61  57  87 NW10      29.66R
MAHNOMEN       CLOUDY    59  58  96 N9        29.70R
$$
MNZ006-009>011-018-025>026-290600-
   North Central Minnesota

CITY           SKY/WX    TMP DP  RH WIND       PRES   REMARKS
BAUDETTE       CLOUDY    60  60 100 N6        29.67R
FLAG ISLAND    CLOUDY    61  59  94 N10       29.68R
INTL FALLS     LGT RAIN  61  58  90 N7        29.64S
WASKISH        DRIZZLE   61  59  94 NW5       29.67R
BIG FORK       LGT RAIN  59  57  94 N6        29.62S
LONGVILLE      CLOUDY    61  57  88 NW3       29.63R
GRAND RAPIDS   LGT RAIN  59  58  96 N10       29.61R
CRANE LAKE     CLOUDY    57  57 100 NE3       29.63S
ORR            DRIZZLE   57  55  94 CALM      29.59S
COOK           DRIZZLE   59  57  94 N3        29.60S
WALKER         DRIZZLE   60  59  97 NW8       29.64S
$$
MNZ012-019>021-037-290600-
   Northeast Minnesota

CITY           SKY/WX    TMP DP  RH WIND       PRES   REMARKS
DULUTH         DRIZZLE   59  59 100 CALM      29.54R FOG
ELY            CLOUDY    57  57 100 NE7       29.58S
HIBBING        CLOUDY    58  58 100 N9        29.58R
EVELETH        CLOUDY    60  57  90 N7        29.58R
DULUTH HARBOR  RAIN      52  50  93 E10       29.55R
TWO HARBORS    LGT RAIN  61  55  82 NE8       29.51R
SILVER BAY     CLOUDY    57  57 100 NE12G18   29.53S FOG
GRAND MARAIS     N/A     53  53 100 NE14G22   29.56F
G MARAIS ARPRT RAIN      55  54  94 NE14      29.60F
$$
MNZ029>031-032-039>041-046>048-054>057-064-290600-
   West Central Minnesota

CITY           SKY/WX    TMP DP  RH WIND       PRES   REMARKS
FERGUS FALLS   CLOUDY    63  61  94 N6        29.67F
WHEATON        CLEAR     63  61  94 CALM      29.71S
MORRIS         CLEAR     64  61  88 N6        29.69R
ALEXANDRIA     CLOUDY    64  59  83 NW10      29.70R
ELBOW LAKE     CLOUDY    63  60  91 NW9       29.70S
WADENA         CLOUDY    61  59  94 NW8       29.67R
GLENWOOD       CLOUDY    64  57  77 NW14G21   29.69R
APPLETON       CLEAR     64  61  88 NW7       29.69R
BENSON         CLEAR     64  61  88 N8        29.70S
ORTONVILLE     CLEAR     66  61  82 NW6       29.70R
MADISON        CLEAR     66  61  82 NW8       29.70R
WILLMAR        FAIR      64  61  88 NW10      29.69R
$$
MNZ033>034-036-042>043-049>051-058-059-290600-
   Central Minnesota

CITY           SKY/WX    TMP DP  RH WIND       PRES   REMARKS
ST CLOUD       CLOUDY    66  61  84 NW13      29.62R
SAUK CENTRE    CLOUDY    64  58  82 NW9       29.67R
PAYNESVILLE    MOCLDY    65  58  78 NW7       29.67R
AITKIN         CLOUDY    59  57  94 W3        29.59R
PINE RIVER     DRIZZLE   61  61 100 MISG      29.67R
BRAINERD       CLOUDY    61  59  93 NW12      29.63R
STAPLES        CLOUDY    61  59  94 NW13      29.65R
LONG PRAIRIE   CLOUDY    63  59  88 W12       29.67R
LITTLE FALLS   CLOUDY    63  57  82 NW8       29.64R
LITCHFIELD     CLOUDY    68  63  83 NW10G16   29.67R
BUFFALO        CLOUDY    67  59  74 W10       29.64R
MAPLE LAKE     CLOUDY    68  61  78 W9        29.65R
HUTCHINSON     MOCLDY    65  63  91 W6        29.68R
$$
MNZ037-044-045-052-053-290600-
   East Central Minnesota

CITY           SKY/WX    TMP DP  RH WIND       PRES   REMARKS
PRINCETON      DRIZZLE   64  63  94 W10G17    29.61R
MORA           CLOUDY    63  59  88 NW7       29.60R
CAMBRIDGE      DRIZZLE   66  61  82 W6        29.58R
RUSH CITY      CLOUDY    64  61  88 W5        29.58R
MOOSE LAKE     CLOUDY    55  54  94 CALM      29.55R FOG
HINCKLEY       CLOUDY    63  61  94 NW7       29.58R
CLOQUET        CLOUDY    59  57  94 W3        29.55R FOG
MCGREGOR       CLOUDY    61  59  94 NW8       29.58R
$$
MNZ071>073-080-081-089-090-097-098-290600-
   Southwest Minnesota

CITY           SKY/WX    TMP DP  RH WIND       PRES   REMARKS
MONTEVIDEO     CLEAR     64  57  77 N6        29.69S
GRANITE FALLS  CLEAR     65  61  86 NW7       29.70S
CANBY          CLEAR     63  59  88 CALM      29.72R
MARSHALL       CLEAR     62  58  86 NW8       29.71
REDWOOD FALLS  CLEAR     67  60  78 NW8       29.68R
OLIVIA         CLEAR     68  61  77 NW9       29.68R
PIPESTONE      CLEAR     66  61  82 NE5       29.73R
WINDOM         CLEAR     66  61  82 NW6       29.71S
WORTHINGTON    CLEAR     65  62  90 N5        29.74R
JACKSON        CLEAR     66  61  82 CALM      29.72R
TRACY          CLEAR     66  61  82 NW5       29.71S
SLAYTON        PTCLDY    65  60  82 NW8       29.73S
$$
MNZ065>067-074>077-082>085-091>093-290600-
   South Central Minnesota

CITY           SKY/WX    TMP DP  RH WIND       PRES   REMARKS
MANKATO        CLEAR     68  61  78 W5        29.67S
NEW ULM        CLEAR     64  61  88 SW3       29.68R
ST JAMES       CLEAR     64  63  94 W6        29.69F
FAIRMONT       CLEAR     69  64  84 NW8       29.70R
GLENCOE        CLOUDY    67  64  87 W7        29.66R
FARIBAULT      PTCLDY    70  61  73 W9G16     29.66R
OWATONNA       CLOUDY    70  63  78 W10       29.67R
WASECA         CLEAR     68  61  77 W8        29.68R
ALBERT LEA     PTCLDY    66  66 100 W6        29.68R
$$
MNZ078>079-086>088-094>096-290600-
   Southeast Minnesota

CITY           SKY/WX    TMP DP  RH WIND       PRES   REMARKS
ROCHESTER      CLOUDY    66  65  96 S12       29.68S
RED WING       CLOUDY    72  63  73 W8        29.60R
STANTON        MOCLDY    70  61  74 W9        29.63R
DODGE CENTER   CLOUDY    66  64  94 SW8       29.67R
WINONA         CLOUDY    70  64  83 SW6       29.64R
AUSTIN         PTCLDY    66  64  94 CALM      29.68R
PRESTON        MOCLDY    65  63  93 SW8       29.68S
$$
ABBREVIATIONS USED IN REMARKS
   TC - TEMPERATURES IN CELSIUS
  WCI - WIND CHILL INDEX
   HX - HEAT INDEX
  VSB - VISIBILITY
$$



USA.gov is the U.S. government's official web portal to all federal, state and local government web resources and services.